Flag for France Weather past 2 weeks in Nîmes, France

Now
82 °F

Clear.


Feels Like: 82 °F
Forecast: 67 / 89 °F
Wind: 8 mph from Southeast

Location: Nimes / Garons

Current Time: Aug 29, 2014 at 2:37:54 PM

Latest Report: Aug 29, 2014 at 2:00 PM


Visibility: N/A

Pressure: 30.04 "Hg

Humidity: 45%

Dew point: 59 °F

Location of NîmesLocation

Historic Weather in Nîmes — Graph

°F

Nîmes temperature yesterday

Maximum temperature yesterday: 91 °F (at 3:30 PM)
Minimum temperature yesterday: 64 °F (at 7:00 AM)
Average temperature yesterday: 77 °F

Past Weeks' High & Low Weather Summary

 TemperatureHumidityPressure
High91 °F (Aug 28, 3:30 PM)83% (Aug 18, 10:30 PM)30.12 "Hg (Aug 18, 10:30 PM)
Low57 °F (Aug 18, 6:00 AM)21% (Aug 27, 4:30 PM)29.86 "Hg (Aug 18, 10:30 PM)
Average72 °F48%29.99 "Hg
* Reported Aug 14 1:00 PM — Aug 29 1:30 PM, Nîmes, Weather by CustomWeather, © 2014

Note: Actual official high and low records may vary slightly from our data, if they occured in-between our weather recording intervals... More about our weather records

Advertising

Nîmes weather history for previous 24 hours

 ConditionsComfort  
Time TempWeatherWind HumidityBarometerVisibility
1:30 PM
Aug 29
84 °FClear.8 mph40%30.04 "HgN/A
1:00 PM84 °FClear.7 mph40%30.04 "HgN/A
12:30 PM84 °FClear.7 mph40%30.04 "HgN/A
12:00 PM82 °FClear.8 mph42%30.07 "HgN/A
11:30 AM79 °FClear.5 mph48%30.07 "HgN/A
11:00 AM79 °FClear.3 mph48%30.07 "HgN/A
10:30 AM77 °FClear.3 mph51%30.07 "HgN/A
10:00 AM77 °FClear.2 mph54%30.07 "HgN/A
9:30 AM73 °FClear.2 mph61%30.04 "HgN/A
9:00 AM72 °FClear.5 mph73%30.01 "HgN/A
8:30 AM68 °FClear.No wind73%30.01 "HgN/A
8:00 AM66 °FClear.No wind73%30.01 "HgN/A
7:30 AM66 °FClear.No wind73%30.01 "HgN/A
7:00 AM66 °FClear.No wind73%30.01 "HgN/A
6:30 AM66 °FClear.2 mph78%30.01 "HgN/A
6:00 AM66 °FClear.1 mph78%29.98 "HgN/A
5:30 AM66 °FMild.No wind78%30.01 "HgN/A
5:00 AM66 °FClear.3 mph73%29.98 "HgN/A
4:30 AM66 °FClear.3 mph73%30.01 "HgN/A
4:00 AM68 °FMild.5 mph69%30.01 "HgN/A
3:30 AM68 °FMild.3 mph69%30.01 "HgN/A
3:00 AM70 °FClear.3 mph64%30.01 "HgN/A
2:30 AM68 °FClear.2 mph69%30.01 "HgN/A
2:00 AM68 °FClear.3 mph69%30.04 "HgN/A
1:30 AM68 °FClear.2 mph64%30.01 "HgN/A
1:00 AM70 °FClear.No wind60%30.04 "HgN/A
12:30 AM72 °FClear.No wind53%30.04 "HgN/A
12:00 AM72 °FClear.No wind57%30.01 "HgN/A
11:30 PM
Aug 28
72 °FClear.2 mph57%30.01 "HgN/A
11:00 PM72 °FClear.3 mph61%30.01 "HgN/A
10:30 PM73 °FClear.5 mph50%30.01 "HgN/A
10:00 PM73 °FClear.6 mph53%30.01 "HgN/A
9:30 PM73 °FClear.5 mph47%30.01 "HgN/A
9:00 PM77 °FClear.3 mph42%30.01 "HgN/A
8:30 PM79 °FClear.3 mph39%29.98 "HgN/A
8:00 PM81 °FClear.5 mph37%29.98 "HgN/A
7:30 PM82 °FClear.6 mph37%29.98 "HgN/A
7:00 PM84 °FClear.8 mph35%29.98 "HgN/A
6:30 PM86 °FClear.8 mph35%29.95 "HgN/A
6:00 PM86 °FClear.10 mph33%29.95 "HgN/A
5:30 PM88 °FClear.10 mph33%29.95 "HgN/A
5:00 PM91 °FClear.5 mph23%29.95 "HgN/A
4:30 PM91 °FClear.7 mph24%29.95 "HgN/A
4:00 PM91 °FClear.5 mph24%29.95 "HgN/A
3:30 PM91 °FClear.5 mph24%29.98 "HgN/A
3:00 PM90 °FClear.6 mph26%29.98 "HgN/A
2:30 PM90 °FClear.5 mph26%29.98 "HgN/A
Weather by CustomWeather, © 2014

See weather overviewHow to use our weather pages